Time,TemperatureF,DewpointF,PressureIn,WindDirection,WindDirectionDegrees,WindSpeedMPH,WindSpeedGustMPH,Humidity,HourlyPrecipIn,Conditions,Clouds,dailyrainin,SoftwareType,DateUTC
2013-04-29 00:02:00,56.3,48.5,29.76,WNW,303,0.0,2.2,75,0.00,,---,0.00,VWS V14.00,2013-04-29 05:02:00,
2013-04-29 00:07:00,55.9,47.8,29.76,WNW,303,0.0,0.0,74,0.00,,---,0.00,VWS V14.00,2013-04-29 05:07:00,
2013-04-29 00:12:00,55.4,47.3,29.76,WNW,302,0.0,0.0,74,0.00,,---,0.00,VWS V14.00,2013-04-29 05:12:00,
2013-04-29 00:17:00,54.7,46.6,29.76,WNW,303,0.0,0.0,74,0.00,,---,0.00,VWS V14.00,2013-04-29 05:17:00,
2013-04-29 00:22:00,54.1,45.7,29.76,WNW,303,0.0,0.0,73,0.00,,---,0.00,VWS V14.00,2013-04-29 05:22:00,
2013-04-29 00:27:00,53.8,45.3,29.76,WNW,303,0.0,0.0,73,0.00,,---,0.00,VWS V14.00,2013-04-29 05:27:00,
2013-04-29 00:32:00,53.6,45.2,29.76,WNW,302,0.0,0.0,73,0.00,,---,0.00,VWS V14.00,2013-04-29 05:32:00,
2013-04-29 00:37:00,53.1,45.0,29.76,WNW,302,0.0,0.0,74,0.00,,---,0.00,VWS V14.00,2013-04-29 05:37:00,
2013-04-29 00:42:00,52.7,44.7,29.76,WNW,302,0.0,0.0,74,0.00,,---,0.00,VWS V14.00,2013-04-29 05:42:00,
2013-04-29 00:48:00,52.3,44.3,29.76,WNW,302,0.0,0.0,74,0.00,,---,0.00,VWS V14.00,2013-04-29 05:48:00,
2013-04-29 00:53:00,51.8,43.8,29.76,WNW,302,0.0,0.0,74,0.00,,---,0.00,VWS V14.00,2013-04-29 05:53:00,
2013-04-29 00:58:00,51.6,44.0,29.76,WNW,302,0.0,0.0,75,0.00,,---,0.00,VWS V14.00,2013-04-29 05:58:00,
2013-04-29 01:03:00,51.6,44.0,29.76,WNW,303,0.0,0.0,75,0.00,,---,0.00,VWS V14.00,2013-04-29 06:03:00,
2013-04-29 01:08:00,51.6,44.3,29.76,WNW,302,0.0,0.0,76,0.00,,---,0.00,VWS V14.00,2013-04-29 06:08:00,
2013-04-29 01:13:00,51.4,44.5,29.76,WNW,302,0.0,0.0,77,0.00,,---,0.00,VWS V14.00,2013-04-29 06:13:00,
2013-04-29 01:18:00,51.3,44.3,29.76,WNW,302,0.0,0.0,77,0.00,,---,0.00,VWS V14.00,2013-04-29 06:18:00,
2013-04-29 01:23:00,51.3,44.6,29.76,WNW,302,0.0,0.0,78,0.00,,---,0.00,VWS V14.00,2013-04-29 06:23:00,
2013-04-29 01:28:00,51.1,44.5,29.79,WNW,303,0.0,0.0,78,0.00,,---,0.00,VWS V14.00,2013-04-29 06:28:00,
2013-04-29 01:33:00,50.9,44.3,29.79,WNW,303,0.0,0.0,78,0.00,,---,0.00,VWS V14.00,2013-04-29 06:33:00,
2013-04-29 01:38:00,50.9,44.6,29.79,WNW,303,0.0,0.0,79,0.00,,---,0.00,VWS V14.00,2013-04-29 06:38:00,
2013-04-29 01:43:00,50.7,44.5,29.79,WNW,303,0.0,0.0,79,0.00,,---,0.00,VWS V14.00,2013-04-29 06:43:00,
2013-04-29 01:48:00,50.7,44.8,29.79,WNW,303,0.0,0.0,80,0.00,,---,0.00,VWS V14.00,2013-04-29 06:48:00,
2013-04-29 01:53:00,50.5,44.6,29.79,WNW,302,0.0,0.0,80,0.00,,---,0.00,VWS V14.00,2013-04-29 06:53:00,
2013-04-29 01:58:00,50.2,44.3,29.79,WNW,303,0.0,0.0,80,0.00,,---,0.00,VWS V14.00,2013-04-29 06:58:00,
2013-04-29 02:03:00,50.0,44.1,29.79,WNW,302,0.0,0.0,80,0.00,,---,0.00,VWS V14.00,2013-04-29 07:03:00,
2013-04-29 02:08:00,49.6,44.1,29.79,WNW,302,0.0,0.0,81,0.00,,---,0.00,VWS V14.00,2013-04-29 07:08:00,
2013-04-29 02:13:00,49.5,43.9,29.79,WNW,303,0.0,0.0,81,0.00,,---,0.00,VWS V14.00,2013-04-29 07:13:00,
2013-04-29 02:18:00,49.5,43.9,29.79,WNW,303,0.0,0.0,81,0.00,,---,0.00,VWS V14.00,2013-04-29 07:18:00,
2013-04-29 02:23:00,49.3,43.7,29.79,WNW,303,0.0,0.0,81,0.00,,---,0.00,VWS V14.00,2013-04-29 07:23:00,
2013-04-29 02:28:00,49.3,44.0,29.79,WNW,302,0.0,0.0,82,0.00,,---,0.00,VWS V14.00,2013-04-29 07:28:00,
2013-04-29 02:33:00,49.6,44.7,29.79,NW,315,0.0,2.7,83,0.00,,---,0.00,VWS V14.00,2013-04-29 07:33:00,
2013-04-29 02:38:00,49.6,44.7,29.79,NW,321,3.1,4.0,83,0.00,,---,0.00,VWS V14.00,2013-04-29 07:38:00,
2013-04-29 02:43:00,49.5,44.5,29.79,NNW,332,4.0,4.0,83,0.00,,---,0.00,VWS V14.00,2013-04-29 07:43:00,
2013-04-29 02:48:00,49.3,44.3,29.79,NNW,333,4.9,5.8,83,0.00,,---,0.00,VWS V14.00,2013-04-29 07:48:00,
2013-04-29 02:53:00,50.0,45.4,29.79,NNW,339,5.4,5.8,84,0.00,,---,0.00,VWS V14.00,2013-04-29 07:53:00,
2013-04-29 02:59:00,50.5,46.2,29.79,NNW,338,5.8,5.8,85,0.00,,---,0.00,VWS V14.00,2013-04-29 07:59:00,
2013-04-29 03:04:00,51.3,46.6,29.79,North,350,5.4,6.3,84,0.00,,---,0.00,VWS V14.00,2013-04-29 08:04:00,
2013-04-29 03:09:00,51.4,45.5,29.79,NNW,334,6.3,6.3,80,0.00,,---,0.00,VWS V14.00,2013-04-29 08:09:00,
2013-04-29 03:14:00,51.6,44.0,29.79,NNW,342,5.8,5.8,75,0.00,,---,0.00,VWS V14.00,2013-04-29 08:14:00,
2013-04-29 03:19:00,51.6,43.3,29.79,NNW,345,5.4,6.3,73,0.00,,---,0.00,VWS V14.00,2013-04-29 08:19:00,
2013-04-29 03:24:00,51.6,42.5,29.79,North,349,6.3,6.3,71,0.00,,---,0.00,VWS V14.00,2013-04-29 08:24:00,
2013-04-29 03:29:00,51.6,42.2,29.79,NNW,348,5.8,7.6,70,0.00,,---,0.00,VWS V14.00,2013-04-29 08:29:00,
2013-04-29 03:34:00,51.4,41.6,29.79,North,353,4.0,5.8,69,0.00,,---,0.00,VWS V14.00,2013-04-29 08:34:00,
2013-04-29 03:39:00,51.3,41.5,29.79,North,0,4.9,5.8,69,0.00,,---,0.00,VWS V14.00,2013-04-29 08:39:00,
2013-04-29 03:44:00,50.9,41.1,29.79,NNW,340,5.4,5.8,69,0.00,,---,0.00,VWS V14.00,2013-04-29 08:44:00,
2013-04-29 03:49:00,50.7,40.9,29.79,North,0,5.8,8.1,69,0.00,,---,0.00,VWS V14.00,2013-04-29 08:49:00,
2013-04-29 03:54:00,50.5,40.8,29.79,North,357,5.4,6.7,69,0.00,,---,0.00,VWS V14.00,2013-04-29 08:54:00,
2013-04-29 03:59:00,50.4,40.2,29.82,North,0,4.5,5.8,68,0.00,,---,0.00,VWS V14.00,2013-04-29 08:59:00,
2013-04-29 04:04:00,50.2,40.0,29.82,North,357,6.3,6.3,68,0.00,,---,0.00,VWS V14.00,2013-04-29 09:04:00,
2013-04-29 04:09:00,50.2,40.0,29.82,North,0,5.4,6.3,68,0.00,,---,0.00,VWS V14.00,2013-04-29 09:09:00,
2013-04-29 04:14:00,50.2,39.7,29.82,North,0,5.8,8.3,67,0.00,,---,0.00,VWS V14.00,2013-04-29 09:14:00,
2013-04-29 04:19:00,50.0,39.1,29.82,North,357,6.3,6.3,66,0.00,,---,0.00,VWS V14.00,2013-04-29 09:19:00,
2013-04-29 04:24:00,49.8,38.9,29.82,North,0,5.8,7.6,66,0.00,,---,0.00,VWS V14.00,2013-04-29 09:24:00,
2013-04-29 04:29:00,49.6,38.8,29.82,North,8,5.8,7.2,66,0.00,,---,0.00,VWS V14.00,2013-04-29 09:29:00,
2013-04-29 04:34:00,49.5,38.6,29.82,North,357,7.6,8.1,66,0.00,,---,0.00,VWS V14.00,2013-04-29 09:34:00,
2013-04-29 04:39:00,49.5,37.8,29.82,North,11,9.6,9.6,64,0.00,,---,0.00,VWS V14.00,2013-04-29 09:39:00,
2013-04-29 04:44:00,49.5,35.7,29.82,North,6,10.1,10.5,59,0.00,,---,0.00,VWS V14.00,2013-04-29 09:44:00,
2013-04-29 04:49:00,49.8,33.4,29.82,ENE,64,11.0,11.0,53,0.00,,---,0.00,VWS V14.00,2013-04-29 09:49:00,
2013-04-29 04:54:00,49.8,32.9,29.82,North,5,10.5,10.5,52,0.00,,---,0.00,VWS V14.00,2013-04-29 09:54:00,
2013-04-29 04:59:00,49.6,32.8,29.82,North,357,8.7,8.7,52,0.00,,---,0.00,VWS V14.00,2013-04-29 09:59:00,
2013-04-29 05:04:00,49.3,32.9,29.82,North,0,6.3,8.3,53,0.00,,---,0.00,VWS V14.00,2013-04-29 10:04:00,
2013-04-29 05:09:00,48.9,33.5,29.82,North,0,6.3,8.3,55,0.00,,---,0.00,VWS V14.00,2013-04-29 10:09:00,
2013-04-29 05:14:00,48.6,33.6,29.82,NNW,342,5.4,5.8,56,0.00,,---,0.00,VWS V14.00,2013-04-29 10:14:00,
2013-04-29 05:19:00,47.8,33.8,29.82,North,353,6.7,7.6,58,0.00,,---,0.00,VWS V14.00,2013-04-29 10:19:00,
2013-04-29 05:24:00,47.7,34.0,29.82,North,353,5.8,6.3,59,0.00,,---,0.00,VWS V14.00,2013-04-29 10:24:00,
2013-04-29 05:29:00,47.7,33.6,29.82,North,0,7.6,11.0,58,0.00,,---,0.00,VWS V14.00,2013-04-29 10:29:00,
2013-04-29 05:34:00,47.8,32.9,29.82,North,0,6.3,7.6,56,0.00,,---,0.00,VWS V14.00,2013-04-29 10:34:00,
2013-04-29 05:40:00,47.5,32.6,29.82,NNW,341,5.8,7.2,56,0.00,,---,0.00,VWS V14.00,2013-04-29 10:40:00,
2013-04-29 05:45:00,47.3,32.0,29.82,North,0,5.4,6.7,55,0.00,,---,0.00,VWS V14.00,2013-04-29 10:45:00,
2013-04-29 05:50:00,46.9,31.6,29.82,North,353,4.9,5.4,55,0.00,,---,0.00,VWS V14.00,2013-04-29 10:50:00,
2013-04-29 05:55:00,46.4,31.1,29.82,NNW,343,4.9,5.8,55,0.00,,---,0.00,VWS V14.00,2013-04-29 10:55:00,
2013-04-29 06:00:00,46.4,31.1,29.82,North,6,6.7,7.6,55,0.00,,---,0.00,VWS V14.00,2013-04-29 11:00:00,
2013-04-29 06:05:00,46.4,31.1,29.82,North,0,5.4,6.3,55,0.00,,---,0.00,VWS V14.00,2013-04-29 11:05:00,
2013-04-29 06:10:00,46.2,31.0,29.82,NNW,348,6.7,6.7,55,0.00,,---,0.00,VWS V14.00,2013-04-29 11:10:00,
2013-04-29 06:15:00,45.9,30.2,29.82,NNW,346,5.8,6.7,54,0.00,,---,0.00,VWS V14.00,2013-04-29 11:15:00,
2013-04-29 06:20:00,45.7,30.0,29.82,NNW,346,6.3,6.3,54,0.00,,---,0.00,VWS V14.00,2013-04-29 11:20:00,
2013-04-29 06:25:00,45.7,30.9,29.82,NNW,348,4.9,5.8,56,0.00,,---,0.00,VWS V14.00,2013-04-29 11:25:00,
2013-04-29 06:30:00,45.9,31.1,29.82,NNW,348,4.9,6.3,56,0.00,,---,0.00,VWS V14.00,2013-04-29 11:30:00,
2013-04-29 06:35:00,45.9,31.1,29.82,NNW,335,5.8,6.3,56,0.00,,---,0.00,VWS V14.00,2013-04-29 11:35:00,
2013-04-29 06:40:00,46.6,31.7,29.82,NNW,346,5.4,6.3,56,0.00,,---,0.00,VWS V14.00,2013-04-29 11:40:00,
2013-04-29 06:45:00,47.7,32.8,29.82,North,353,5.4,5.8,56,0.00,,---,0.00,VWS V14.00,2013-04-29 11:45:00,
2013-04-29 06:50:00,48.4,32.5,29.82,NNW,335,5.8,6.3,54,0.00,,---,0.00,VWS V14.00,2013-04-29 11:50:00,
2013-04-29 06:55:00,48.9,33.0,29.82,North,353,4.9,6.3,54,0.00,,---,0.00,VWS V14.00,2013-04-29 11:55:00,
2013-04-29 07:00:00,48.9,32.1,29.82,NW,324,4.0,5.4,52,0.00,,---,0.00,VWS V14.00,2013-04-29 12:00:00,
2013-04-29 07:05:00,48.2,31.4,29.82,NNW,333,4.0,4.9,52,0.00,,---,0.00,VWS V14.00,2013-04-29 12:05:00,
2013-04-29 07:10:00,48.9,33.5,29.82,North,353,5.4,6.3,55,0.00,,---,0.00,VWS V14.00,2013-04-29 12:10:00,
2013-04-29 07:15:00,49.8,34.3,29.82,North,353,6.3,8.1,55,0.00,,---,0.00,VWS V14.00,2013-04-29 12:15:00,
2013-04-29 07:20:00,50.2,33.7,29.82,NNW,346,6.7,8.3,53,0.00,,---,0.00,VWS V14.00,2013-04-29 12:20:00,
2013-04-29 07:25:00,50.4,33.9,29.82,North,353,8.7,10.5,53,0.00,,---,0.00,VWS V14.00,2013-04-29 12:25:00,
2013-04-29 07:30:00,50.4,33.4,29.82,NNW,343,8.1,8.7,52,0.00,,---,0.00,VWS V14.00,2013-04-29 12:30:00,
2013-04-29 07:35:00,50.2,33.7,29.82,NNW,335,8.7,10.1,53,0.00,,---,0.00,VWS V14.00,2013-04-29 12:35:00,
2013-04-29 07:40:00,50.2,32.8,29.82,North,357,10.1,11.4,51,0.00,,---,0.00,VWS V14.00,2013-04-29 12:40:00,
2013-04-29 07:45:00,50.4,32.4,29.82,North,0,8.7,9.2,50,0.00,,---,0.00,VWS V14.00,2013-04-29 12:45:00,
2013-04-29 07:50:00,50.9,32.9,29.82,North,357,7.6,8.3,50,0.00,,---,0.00,VWS V14.00,2013-04-29 12:50:00,
2013-04-29 07:55:00,51.1,32.1,29.82,North,357,8.1,8.3,48,0.00,,---,0.00,VWS V14.00,2013-04-29 12:55:00,
2013-04-29 08:00:00,51.4,31.9,29.82,North,353,5.8,8.1,47,0.00,,---,0.00,VWS V14.00,2013-04-29 13:00:00,
2013-04-29 08:05:00,51.8,31.7,29.82,NNE,15,11.0,11.0,46,0.00,,---,0.00,VWS V14.00,2013-04-29 13:05:00,
2013-04-29 08:10:00,52.2,30.9,29.82,NNE,31,8.3,8.3,44,0.00,,---,0.00,VWS V14.00,2013-04-29 13:10:00,
2013-04-29 08:15:00,53.1,30.6,29.82,North,9,5.8,8.3,42,0.00,,---,0.00,VWS V14.00,2013-04-29 13:15:00,
2013-04-29 08:20:00,53.8,30.0,29.82,North,0,8.3,8.7,40,0.00,,---,0.00,VWS V14.00,2013-04-29 13:20:00,
2013-04-29 08:25:00,54.1,30.4,29.82,NNE,14,8.3,9.2,40,0.00,,---,0.00,VWS V14.00,2013-04-29 13:25:00,
2013-04-29 08:30:00,54.5,29.4,29.82,NNE,31,5.4,10.1,38,0.00,,---,0.00,VWS V14.00,2013-04-29 13:30:00,
2013-04-29 08:35:00,54.7,29.6,29.82,North,11,8.1,10.1,38,0.00,,---,0.00,VWS V14.00,2013-04-29 13:35:00,
2013-04-29 08:40:00,54.3,29.3,29.82,North,5,7.6,9.2,38,0.00,,---,0.00,VWS V14.00,2013-04-29 13:40:00,
2013-04-29 08:45:00,54.3,29.3,29.82,NNE,12,8.3,8.3,38,0.00,,---,0.00,VWS V14.00,2013-04-29 13:45:00,
2013-04-29 08:50:00,55.0,29.9,29.82,NE,42,7.2,8.7,38,0.00,,---,0.00,VWS V14.00,2013-04-29 13:50:00,
2013-04-29 08:55:00,55.9,30.1,29.82,ENE,68,3.1,7.6,37,0.00,,---,0.00,VWS V14.00,2013-04-29 13:55:00,
2013-04-29 09:00:00,56.5,29.9,29.82,North,9,5.4,7.6,36,0.00,,---,0.00,VWS V14.00,2013-04-29 14:00:00,
2013-04-29 09:05:00,56.7,30.0,29.82,NNE,25,3.1,4.9,36,0.00,,---,0.00,VWS V14.00,2013-04-29 14:05:00,
2013-04-29 09:10:00,57.6,30.8,29.82,NNE,33,2.7,5.4,36,0.00,,---,0.00,VWS V14.00,2013-04-29 14:10:00,
2013-04-29 09:15:00,58.3,30.8,29.82,East,82,4.0,5.8,35,0.00,,---,0.00,VWS V14.00,2013-04-29 14:15:00,
2013-04-29 09:21:00,59.0,31.4,29.82,NNE,16,4.0,4.0,35,0.00,,---,0.00,VWS V14.00,2013-04-29 14:21:00,
2013-04-29 09:25:00,60.1,32.4,29.82,NNE,30,7.6,7.6,35,0.00,,---,0.00,VWS V14.00,2013-04-29 14:25:00,
2013-04-29 09:30:00,60.4,32.0,29.79,NNE,30,3.1,6.3,34,0.00,,---,0.00,VWS V14.00,2013-04-29 14:30:00,
2013-04-29 09:36:00,61.0,31.7,29.79,NE,56,4.9,4.9,33,0.00,,---,0.00,VWS V14.00,2013-04-29 14:36:00,
2013-04-29 09:41:00,61.2,31.1,29.79,NE,51,4.9,5.8,32,0.00,,---,0.00,VWS V14.00,2013-04-29 14:41:00,
2013-04-29 09:46:00,61.2,29.5,29.79,ENE,73,3.6,4.9,30,0.00,,---,0.00,VWS V14.00,2013-04-29 14:46:00,
2013-04-29 09:51:00,61.3,29.7,29.79,ENE,68,2.7,3.6,30,0.00,,---,0.00,VWS V14.00,2013-04-29 14:51:00,
2013-04-29 09:56:00,61.9,30.1,29.79,NE,40,6.3,7.6,30,0.00,,---,0.00,VWS V14.00,2013-04-29 14:56:00,
2013-04-29 10:01:00,62.2,29.6,29.79,North,353,3.6,4.9,29,0.00,,---,0.00,VWS V14.00,2013-04-29 15:01:00,
2013-04-29 10:06:00,62.8,30.1,29.79,NNE,28,4.0,4.0,29,0.00,,---,0.00,VWS V14.00,2013-04-29 15:06:00,
2013-04-29 10:11:00,62.8,29.2,29.79,North,9,6.3,6.3,28,0.00,,---,0.00,VWS V14.00,2013-04-29 15:11:00,
2013-04-29 10:16:00,63.1,30.4,29.79,NNE,15,5.8,6.7,29,0.00,,---,0.00,VWS V14.00,2013-04-29 15:16:00,
2013-04-29 10:21:00,63.7,30.0,29.79,ENE,67,5.4,5.4,28,0.00,,---,0.00,VWS V14.00,2013-04-29 15:21:00,
2013-04-29 10:26:00,63.9,31.0,29.79,SSE,158,2.2,3.6,29,0.00,,---,0.00,VWS V14.00,2013-04-29 15:26:00,
2013-04-29 10:31:00,64.2,30.5,29.79,SE,131,2.7,3.1,28,0.00,,---,0.00,VWS V14.00,2013-04-29 15:31:00,
2013-04-29 10:36:00,64.2,30.5,29.79,ESE,114,3.1,4.9,28,0.00,,---,0.00,VWS V14.00,2013-04-29 15:36:00,
2013-04-29 10:41:00,64.8,30.9,29.79,East,86,4.9,5.4,28,0.00,,---,0.00,VWS V14.00,2013-04-29 15:41:00,
2013-04-29 10:46:00,64.9,30.2,29.79,SE,141,4.5,5.4,27,0.00,,---,0.00,VWS V14.00,2013-04-29 15:46:00,
2013-04-29 10:51:00,65.1,31.2,29.79,East,80,4.0,4.0,28,0.00,,---,0.00,VWS V14.00,2013-04-29 15:51:00,
2013-04-29 10:56:00,65.3,30.5,29.79,East,80,6.3,6.3,27,0.00,,---,0.00,VWS V14.00,2013-04-29 15:56:00,
2013-04-29 11:01:00,65.7,29.9,29.79,SE,128,5.8,6.3,26,0.00,,---,0.00,VWS V14.00,2013-04-29 16:01:00,
2013-04-29 11:06:00,65.8,30.0,29.79,East,92,5.4,5.4,26,0.00,,---,0.00,VWS V14.00,2013-04-29 16:06:00,
2013-04-29 11:11:00,66.0,30.2,29.79,ENE,73,4.9,5.4,26,0.00,,---,0.00,VWS V14.00,2013-04-29 16:11:00,
2013-04-29 11:16:00,66.2,29.4,29.76,SSE,167,3.1,5.4,25,0.00,,---,0.00,VWS V14.00,2013-04-29 16:16:00,
2013-04-29 11:21:00,66.9,31.0,29.76,East,89,3.1,4.0,26,0.00,,---,0.00,VWS V14.00,2013-04-29 16:21:00,
2013-04-29 11:26:00,67.5,31.4,29.76,East,88,4.0,5.8,26,0.00,,---,0.00,VWS V14.00,2013-04-29 16:26:00,
2013-04-29 11:31:00,68.0,30.9,29.76,NW,326,2.7,6.3,25,0.00,,---,0.00,VWS V14.00,2013-04-29 16:31:00,
2013-04-29 11:36:00,68.0,31.9,29.76,NNE,15,3.1,3.1,26,0.00,,---,0.00,VWS V14.00,2013-04-29 16:36:00,
2013-04-29 11:41:00,68.5,31.4,29.76,NE,44,3.6,4.0,25,0.00,,---,0.00,VWS V14.00,2013-04-29 16:41:00,
2013-04-29 11:46:00,69.1,31.8,29.76,WSW,255,2.7,3.1,25,0.00,,---,0.00,VWS V14.00,2013-04-29 16:46:00,
2013-04-29 11:52:00,69.6,32.3,29.76,South,180,3.1,3.1,25,0.00,,---,0.00,VWS V14.00,2013-04-29 16:52:00,
2013-04-29 11:57:00,69.6,32.3,29.76,SW,214,2.7,2.7,25,0.00,,---,0.00,VWS V14.00,2013-04-29 16:57:00,
2013-04-29 12:02:00,69.8,32.4,29.76,WSW,255,3.6,4.0,25,0.00,,---,0.00,VWS V14.00,2013-04-29 17:02:00,
2013-04-29 12:07:00,70.0,31.6,29.76,NNW,335,3.6,4.9,24,0.00,,---,0.00,VWS V14.00,2013-04-29 17:07:00,
2013-04-29 12:12:00,69.4,32.1,29.76,North,357,6.3,6.3,25,0.00,,---,0.00,VWS V14.00,2013-04-29 17:12:00,
2013-04-29 12:17:00,70.5,33.0,29.76,East,90,5.4,5.4,25,0.00,,---,0.00,VWS V14.00,2013-04-29 17:17:00,
2013-04-29 12:22:00,71.2,32.6,29.76,SE,135,4.0,4.0,24,0.00,,---,0.00,VWS V14.00,2013-04-29 17:22:00,
2013-04-29 12:27:00,71.4,32.8,29.76,East,94,7.6,7.6,24,0.00,,---,0.00,VWS V14.00,2013-04-29 17:27:00,
2013-04-29 12:32:00,71.2,32.6,29.76,ENE,74,5.8,8.1,24,0.00,,---,0.00,VWS V14.00,2013-04-29 17:32:00,
2013-04-29 12:37:00,71.8,32.0,29.76,NNE,28,2.7,4.0,23,0.00,,---,0.00,VWS V14.00,2013-04-29 17:37:00,
2013-04-29 12:42:00,72.1,32.3,29.73,SSE,151,3.1,3.1,23,0.00,,---,0.00,VWS V14.00,2013-04-29 17:42:00,
2013-04-29 12:47:00,72.0,32.2,29.73,SSE,147,4.9,5.8,23,0.00,,---,0.00,VWS V14.00,2013-04-29 17:47:00,
2013-04-29 12:52:00,71.4,31.7,29.73,South,183,2.7,4.0,23,0.00,,---,0.00,VWS V14.00,2013-04-29 17:52:00,
2013-04-29 12:57:00,71.6,31.9,29.73,ESE,106,4.0,4.0,23,0.00,,---,0.00,VWS V14.00,2013-04-29 17:57:00,
2013-04-29 13:02:00,71.8,32.0,29.73,SSE,149,3.6,5.8,23,0.00,,---,0.00,VWS V14.00,2013-04-29 18:02:00,
2013-04-29 13:07:00,72.3,32.5,29.73,ESE,122,4.9,5.4,23,0.00,,---,0.00,VWS V14.00,2013-04-29 18:07:00,
2013-04-29 13:12:00,72.1,31.2,29.73,SSW,207,4.0,4.0,22,0.00,,---,0.00,VWS V14.00,2013-04-29 18:12:00,
2013-04-29 13:17:00,72.3,31.4,29.73,West,272,3.1,3.6,22,0.00,,---,0.00,VWS V14.00,2013-04-29 18:17:00,
2013-04-29 13:22:00,72.9,32.9,29.73,South,180,2.7,5.8,23,0.00,,---,0.00,VWS V14.00,2013-04-29 18:22:00,
2013-04-29 13:27:00,73.2,33.2,29.73,SSE,150,2.2,2.7,23,0.00,,---,0.00,VWS V14.00,2013-04-29 18:27:00,
2013-04-29 13:32:00,73.9,32.7,29.73,SE,139,3.1,6.3,22,0.00,,---,0.00,VWS V14.00,2013-04-29 18:32:00,
2013-04-29 13:37:00,74.1,32.9,29.73,NE,52,2.7,4.9,22,0.00,,---,0.00,VWS V14.00,2013-04-29 18:37:00,
2013-04-29 13:42:00,74.3,33.0,29.70,SSE,166,4.0,5.8,22,0.00,,---,0.00,VWS V14.00,2013-04-29 18:42:00,
2013-04-29 13:47:00,74.5,33.2,29.70,ESE,108,3.6,3.6,22,0.00,,---,0.00,VWS V14.00,2013-04-29 18:47:00,
2013-04-29 13:52:00,74.7,33.3,29.70,ENE,63,6.3,6.3,22,0.00,,---,0.00,VWS V14.00,2013-04-29 18:52:00,
2013-04-29 13:57:00,74.8,33.5,29.70,WSW,248,3.1,4.0,22,0.00,,---,0.00,VWS V14.00,2013-04-29 18:57:00,
2013-04-29 14:02:00,75.2,33.8,29.70,SSE,150,3.1,4.9,22,0.00,,---,0.00,VWS V14.00,2013-04-29 19:02:00,
2013-04-29 14:07:00,74.8,33.5,29.70,East,81,5.8,5.8,22,0.00,,---,0.00,VWS V14.00,2013-04-29 19:07:00,
2013-04-29 14:12:00,74.7,32.2,29.70,East,99,5.8,6.3,21,0.00,,---,0.00,VWS V14.00,2013-04-29 19:12:00,
2013-04-29 14:17:00,74.8,32.3,29.70,East,96,5.8,6.7,21,0.00,,---,0.00,VWS V14.00,2013-04-29 19:17:00,
2013-04-29 14:22:00,74.7,32.2,29.70,SSW,212,2.7,5.4,21,0.00,,---,0.00,VWS V14.00,2013-04-29 19:22:00,
2013-04-29 14:28:00,75.2,32.6,29.70,SSE,156,2.2,5.4,21,0.00,,---,0.00,VWS V14.00,2013-04-29 19:28:00,
2013-04-29 14:33:00,75.9,33.2,29.70,NNE,20,2.2,3.6,21,0.00,,---,0.00,VWS V14.00,2013-04-29 19:33:00,
2013-04-29 14:38:00,76.1,33.4,29.70,ESE,113,4.9,4.9,21,0.00,,---,0.00,VWS V14.00,2013-04-29 19:38:00,
2013-04-29 14:43:00,75.9,33.2,29.67,SE,126,3.6,6.7,21,0.00,,---,0.00,VWS V14.00,2013-04-29 19:43:00,
2013-04-29 14:48:00,76.1,32.2,29.67,ESE,109,2.7,2.7,20,0.00,,---,0.00,VWS V14.00,2013-04-29 19:48:00,
2013-04-29 14:53:00,76.3,33.5,29.67,NE,42,4.0,6.3,21,0.00,,---,0.00,VWS V14.00,2013-04-29 19:53:00,
2013-04-29 14:58:00,76.6,33.8,29.67,East,82,8.3,9.6,21,0.00,,---,0.00,VWS V14.00,2013-04-29 19:58:00,
2013-04-29 15:03:00,76.6,33.8,29.67,East,93,4.9,6.3,21,0.00,,---,0.00,VWS V14.00,2013-04-29 20:03:00,
2013-04-29 15:08:00,77.0,32.9,29.67,SSE,151,3.1,4.9,20,0.00,,---,0.00,VWS V14.00,2013-04-29 20:08:00,
2013-04-29 15:13:00,77.2,33.0,29.67,SE,129,7.6,8.1,20,0.00,,---,0.00,VWS V14.00,2013-04-29 20:13:00,
2013-04-29 15:18:00,77.5,33.3,29.67,SSE,152,5.4,6.3,20,0.00,,---,0.00,VWS V14.00,2013-04-29 20:18:00,
2013-04-29 15:23:00,77.5,33.3,29.67,South,180,2.7,5.4,20,0.00,,---,0.00,VWS V14.00,2013-04-29 20:23:00,
2013-04-29 15:28:00,79.0,34.5,29.67,SE,127,2.2,4.0,20,0.00,,---,0.00,VWS V14.00,2013-04-29 20:28:00,
2013-04-29 15:33:00,79.0,34.5,29.67,ESE,115,4.9,8.1,20,0.00,,---,0.00,VWS V14.00,2013-04-29 20:33:00,
2013-04-29 15:38:00,78.3,33.9,29.67,SE,124,5.4,5.8,20,0.00,,---,0.00,VWS V14.00,2013-04-29 20:38:00,
2013-04-29 15:43:00,78.4,34.1,29.64,SE,145,2.7,7.6,20,0.00,,---,0.00,VWS V14.00,2013-04-29 20:43:00,
2013-04-29 15:48:00,79.0,34.5,29.64,South,172,2.7,6.3,20,0.00,,---,0.00,VWS V14.00,2013-04-29 20:48:00,
2013-04-29 15:53:00,79.0,34.5,29.64,East,99,3.1,6.3,20,0.00,,---,0.00,VWS V14.00,2013-04-29 20:53:00,
2013-04-29 15:58:00,78.4,34.1,29.64,SSW,204,6.3,7.6,20,0.00,,---,0.00,VWS V14.00,2013-04-29 20:58:00,
2013-04-29 16:03:00,77.4,34.4,29.64,SE,142,2.2,5.4,21,0.00,,---,0.00,VWS V14.00,2013-04-29 21:03:00,
2013-04-29 16:08:00,77.5,34.6,29.64,ESE,103,4.0,5.4,21,0.00,,---,0.00,VWS V14.00,2013-04-29 21:08:00,
2013-04-29 16:13:00,78.4,35.3,29.64,ENE,66,4.9,4.9,21,0.00,,---,0.00,VWS V14.00,2013-04-29 21:13:00,
2013-04-29 16:18:00,77.9,34.9,29.64,SSE,158,5.4,5.8,21,0.00,,---,0.00,VWS V14.00,2013-04-29 21:18:00,
2013-04-29 16:23:00,77.9,34.9,29.64,SSW,210,4.0,4.0,21,0.00,,---,0.00,VWS V14.00,2013-04-29 21:23:00,
2013-04-29 16:28:00,78.8,34.4,29.64,ENE,65,6.3,6.3,20,0.00,,---,0.00,VWS V14.00,2013-04-29 21:28:00,
2013-04-29 16:33:00,78.8,35.6,29.64,East,100,3.6,5.4,21,0.00,,---,0.00,VWS V14.00,2013-04-29 21:33:00,
2013-04-29 16:38:00,78.4,35.3,29.64,South,188,4.0,5.4,21,0.00,,---,0.00,VWS V14.00,2013-04-29 21:38:00,
2013-04-29 16:43:00,77.0,34.1,29.64,ESE,111,4.0,7.2,21,0.00,,---,0.00,VWS V14.00,2013-04-29 21:43:00,
2013-04-29 16:48:00,76.8,35.1,29.64,SSE,158,3.6,5.8,22,0.00,,---,0.00,VWS V14.00,2013-04-29 21:48:00,
2013-04-29 16:53:00,78.1,35.0,29.64,SE,143,5.4,6.3,21,0.00,,---,0.00,VWS V14.00,2013-04-29 21:53:00,
2013-04-29 16:58:00,79.0,35.8,29.64,ESE,116,5.4,7.6,21,0.00,,---,0.00,VWS V14.00,2013-04-29 21:58:00,
2013-04-29 17:03:00,78.3,35.2,29.64,East,91,3.1,6.3,21,0.00,,---,0.00,VWS V14.00,2013-04-29 22:03:00,
2013-04-29 17:08:00,78.1,35.0,29.64,SE,134,4.9,6.3,21,0.00,,---,0.00,VWS V14.00,2013-04-29 22:08:00,
2013-04-29 17:13:00,78.3,35.2,29.61,SSE,150,6.3,8.1,21,0.00,,---,0.00,VWS V14.00,2013-04-29 22:13:00,
2013-04-29 17:19:00,77.9,34.9,29.61,South,173,4.0,4.0,21,0.00,,---,0.00,VWS V14.00,2013-04-29 22:19:00,
2013-04-29 17:24:00,77.5,35.7,29.61,South,187,8.1,8.1,22,0.00,,---,0.00,VWS V14.00,2013-04-29 22:24:00,
2013-04-29 17:29:00,76.3,34.7,29.61,SSE,160,5.8,10.1,22,0.00,,---,0.00,VWS V14.00,2013-04-29 22:29:00,
2013-04-29 17:34:00,76.6,35.0,29.61,SSE,165,6.3,8.1,22,0.00,,---,0.00,VWS V14.00,2013-04-29 22:34:00,
2013-04-29 17:39:00,75.9,34.4,29.61,South,184,8.1,8.7,22,0.00,,---,0.00,VWS V14.00,2013-04-29 22:39:00,
2013-04-29 17:44:00,75.4,35.0,29.61,ESE,116,4.0,7.6,23,0.00,,---,0.00,VWS V14.00,2013-04-29 22:44:00,
2013-04-29 17:49:00,74.8,34.6,29.61,SSE,152,5.8,10.5,23,0.00,,---,0.00,VWS V14.00,2013-04-29 22:49:00,
2013-04-29 17:54:00,74.1,34.0,29.61,SE,141,8.1,8.3,23,0.00,,---,0.00,VWS V14.00,2013-04-29 22:54:00,
2013-04-29 17:59:00,74.1,34.0,29.61,SSW,193,4.0,6.3,23,0.00,,---,0.00,VWS V14.00,2013-04-29 22:59:00,
2013-04-29 18:04:00,74.3,35.2,29.61,SE,137,5.4,11.0,24,0.00,,---,0.00,VWS V14.00,2013-04-29 23:04:00,
2013-04-29 18:09:00,74.1,36.1,29.61,SSE,148,3.1,6.3,25,0.00,,---,0.00,VWS V14.00,2013-04-29 23:09:00,
2013-04-29 18:14:00,74.3,37.2,29.61,SSE,158,5.4,7.2,26,0.00,,---,0.00,VWS V14.00,2013-04-29 23:14:00,
2013-04-29 18:19:00,74.7,37.5,29.61,South,189,4.9,6.3,26,0.00,,---,0.00,VWS V14.00,2013-04-29 23:19:00,
2013-04-29 18:24:00,74.3,38.2,29.61,East,89,5.8,5.8,27,0.00,,---,0.00,VWS V14.00,2013-04-29 23:24:00,
2013-04-29 18:29:00,73.6,38.5,29.61,SSE,168,4.9,5.4,28,0.00,,---,0.00,VWS V14.00,2013-04-29 23:29:00,
2013-04-29 18:34:00,72.9,38.8,29.61,SSE,148,6.3,8.3,29,0.00,,---,0.00,VWS V14.00,2013-04-29 23:34:00,
2013-04-29 18:39:00,72.5,38.5,29.61,SSW,194,8.3,8.3,29,0.00,,---,0.00,VWS V14.00,2013-04-29 23:39:00,
2013-04-29 18:44:00,72.5,38.5,29.61,SSE,159,3.6,6.3,29,0.00,,---,0.00,VWS V14.00,2013-04-29 23:44:00,
2013-04-29 18:49:00,72.9,38.8,29.61,SSE,166,4.0,6.3,29,0.00,,---,0.00,VWS V14.00,2013-04-29 23:49:00,
2013-04-29 18:54:00,73.4,38.3,29.61,ESE,103,5.4,8.1,28,0.00,,---,0.00,VWS V14.00,2013-04-29 23:54:00,
2013-04-29 18:59:00,73.8,38.7,29.58,SSE,168,5.8,6.3,28,0.00,,---,0.00,VWS V14.00,2013-04-29 23:59:00,
2013-04-29 19:04:00,73.8,38.7,29.58,SSW,197,5.4,7.6,28,0.00,,---,0.00,VWS V14.00,2013-04-30 00:04:00,
2013-04-29 19:09:00,73.2,38.2,29.58,SSW,192,5.8,5.8,28,0.00,,---,0.00,VWS V14.00,2013-04-30 00:09:00,
2013-04-29 19:14:00,72.7,38.6,29.61,ESE,118,2.7,5.4,29,0.00,,---,0.00,VWS V14.00,2013-04-30 00:14:00,
2013-04-29 19:19:00,71.4,38.4,29.61,SSE,156,4.9,4.9,30,0.00,,---,0.00,VWS V14.00,2013-04-30 00:19:00,
2013-04-29 19:24:00,70.5,38.5,29.61,South,180,4.0,4.0,31,0.00,,---,0.00,VWS V14.00,2013-04-30 00:24:00,
2013-04-29 19:29:00,70.0,38.8,29.61,SSE,154,3.6,4.9,32,0.00,,---,0.00,VWS V14.00,2013-04-30 00:29:00,
2013-04-29 19:34:00,69.3,38.2,29.61,South,181,0.0,3.1,32,0.00,,---,0.00,VWS V14.00,2013-04-30 00:34:00,
2013-04-29 19:39:00,68.7,37.7,29.61,South,169,2.7,2.7,32,0.00,,---,0.00,VWS V14.00,2013-04-30 00:39:00,
2013-04-29 19:44:00,68.2,37.2,29.61,South,169,0.0,0.0,32,0.00,,---,0.00,VWS V14.00,2013-04-30 00:44:00,
2013-04-29 19:49:00,67.5,37.4,29.61,South,169,0.0,0.0,33,0.00,,---,0.00,VWS V14.00,2013-04-30 00:49:00,
2013-04-29 19:54:00,66.7,36.8,29.61,South,169,0.0,0.0,33,0.00,,---,0.00,VWS V14.00,2013-04-30 00:54:00,
2013-04-29 19:59:00,66.0,36.9,29.58,South,169,0.0,0.0,34,0.00,,---,0.00,VWS V14.00,2013-04-30 00:59:00,
2013-04-29 20:04:00,65.3,36.2,29.58,South,169,0.0,0.0,34,0.00,,---,0.00,VWS V14.00,2013-04-30 01:04:00,
2013-04-29 20:10:00,64.6,36.3,29.58,South,169,0.0,0.0,35,0.00,,---,0.00,VWS V14.00,2013-04-30 01:10:00,
2013-04-29 20:14:00,63.9,37.1,29.58,South,169,0.0,0.0,37,0.00,,---,0.00,VWS V14.00,2013-04-30 01:14:00,
2013-04-29 20:20:00,63.0,37.0,29.58,South,169,0.0,0.0,38,0.00,,---,0.00,VWS V14.00,2013-04-30 01:20:00,
2013-04-29 20:25:00,62.2,37.0,29.58,South,169,0.0,0.0,39,0.00,,---,0.00,VWS V14.00,2013-04-30 01:25:00,
2013-04-29 20:30:00,61.5,37.0,29.58,South,169,0.0,0.0,40,0.00,,---,0.00,VWS V14.00,2013-04-30 01:30:00,
2013-04-29 20:35:00,60.8,37.6,29.58,South,169,0.0,0.0,42,0.00,,---,0.00,VWS V14.00,2013-04-30 01:35:00,
2013-04-29 20:40:00,60.4,38.4,29.58,South,169,0.0,0.0,44,0.00,,---,0.00,VWS V14.00,2013-04-30 01:40:00,
2013-04-29 20:45:00,60.3,38.8,29.58,South,169,0.0,0.0,45,0.00,,---,0.00,VWS V14.00,2013-04-30 01:45:00,
2013-04-29 20:50:00,60.3,39.4,29.58,South,169,0.0,0.0,46,0.00,,---,0.00,VWS V14.00,2013-04-30 01:50:00,
2013-04-29 20:55:00,60.3,39.4,29.58,South,169,0.0,0.0,46,0.00,,---,0.00,VWS V14.00,2013-04-30 01:55:00,
2013-04-29 21:00:00,60.4,40.1,29.58,South,169,0.0,0.0,47,0.00,,---,0.00,VWS V14.00,2013-04-30 02:00:00,
2013-04-29 21:05:00,60.4,40.1,29.58,South,169,0.0,0.0,47,0.00,,---,0.00,VWS V14.00,2013-04-30 02:05:00,
2013-04-29 21:10:00,60.3,40.0,29.58,South,169,0.0,0.0,47,0.00,,---,0.00,VWS V14.00,2013-04-30 02:10:00,
2013-04-29 21:15:00,60.3,40.0,29.58,South,169,0.0,0.0,47,0.00,,---,0.00,VWS V14.00,2013-04-30 02:15:00,
2013-04-29 21:20:00,59.9,40.2,29.58,South,169,0.0,0.0,48,0.00,,---,0.00,VWS V14.00,2013-04-30 02:20:00,
2013-04-29 21:25:00,59.7,40.5,29.58,South,169,0.0,0.0,49,0.00,,---,0.00,VWS V14.00,2013-04-30 02:25:00,
2013-04-29 21:30:00,59.5,41.9,29.58,South,169,0.0,0.0,52,0.00,,---,0.00,VWS V14.00,2013-04-30 02:30:00,
2013-04-29 21:35:00,59.7,42.1,29.58,South,169,0.0,0.0,52,0.00,,---,0.00,VWS V14.00,2013-04-30 02:35:00,
2013-04-29 21:40:00,59.5,41.4,29.58,South,169,0.0,0.0,51,0.00,,---,0.00,VWS V14.00,2013-04-30 02:40:00,
2013-04-29 21:45:00,59.4,41.2,29.58,South,169,0.0,0.0,51,0.00,,---,0.00,VWS V14.00,2013-04-30 02:45:00,
2013-04-29 21:50:00,59.4,41.8,29.58,South,169,0.0,0.0,52,0.00,,---,0.00,VWS V14.00,2013-04-30 02:50:00,
2013-04-29 21:55:00,59.4,42.2,29.58,South,169,0.0,0.0,53,0.00,,---,0.00,VWS V14.00,2013-04-30 02:55:00,
2013-04-29 22:00:00,59.5,42.9,29.58,South,169,0.0,0.0,54,0.00,,---,0.00,VWS V14.00,2013-04-30 03:00:00,
2013-04-29 22:05:00,59.7,42.6,29.58,South,169,0.0,0.0,53,0.00,,---,0.00,VWS V14.00,2013-04-30 03:05:00,
2013-04-29 22:10:00,59.7,42.6,29.58,South,169,0.0,0.0,53,0.00,,---,0.00,VWS V14.00,2013-04-30 03:10:00,
2013-04-29 22:16:00,59.7,42.6,29.58,South,169,0.0,0.0,53,0.00,,---,0.00,VWS V14.00,2013-04-30 03:16:00,
2013-04-29 22:21:00,59.7,42.6,29.58,South,169,0.0,0.0,53,0.00,,---,0.00,VWS V14.00,2013-04-30 03:21:00,
2013-04-29 22:26:00,59.4,42.2,29.58,South,169,0.0,0.0,53,0.00,,---,0.00,VWS V14.00,2013-04-30 03:26:00,
2013-04-29 22:31:00,59.4,43.2,29.58,SE,130,2.7,3.6,55,0.00,,---,0.00,VWS V14.00,2013-04-30 03:31:00,
2013-04-29 22:36:00,59.9,44.2,29.58,SE,130,0.0,0.0,56,0.00,,---,0.00,VWS V14.00,2013-04-30 03:36:00,
2013-04-29 22:41:00,60.4,45.6,29.58,SE,130,0.0,2.2,58,0.00,,---,0.00,VWS V14.00,2013-04-30 03:41:00,
2013-04-29 22:46:00,60.8,46.0,29.58,SE,130,0.0,0.0,58,0.00,,---,0.00,VWS V14.00,2013-04-30 03:46:00,
2013-04-29 22:51:00,61.2,47.6,29.58,SSE,159,2.7,3.6,61,0.00,,---,0.00,VWS V14.00,2013-04-30 03:51:00,
2013-04-29 22:56:00,62.1,49.8,29.58,SE,125,2.7,4.9,64,0.00,,---,0.00,VWS V14.00,2013-04-30 03:56:00,
2013-04-29 23:01:00,62.6,50.3,29.58,SE,124,2.7,2.7,64,0.00,,---,0.00,VWS V14.00,2013-04-30 04:01:00,
2013-04-29 23:06:00,62.4,50.1,29.58,ESE,116,0.0,2.7,64,0.00,,---,0.00,VWS V14.00,2013-04-30 04:06:00,
2013-04-29 23:11:00,62.4,50.5,29.58,ESE,102,2.7,3.1,65,0.00,,---,0.00,VWS V14.00,2013-04-30 04:11:00,
2013-04-29 23:16:00,62.4,50.5,29.55,SE,129,2.7,3.6,65,0.00,,---,0.00,VWS V14.00,2013-04-30 04:16:00,
2013-04-29 23:21:00,62.4,50.9,29.55,ESE,118,4.0,4.0,66,0.00,,---,0.00,VWS V14.00,2013-04-30 04:21:00,
2013-04-29 23:26:00,62.8,51.7,29.55,ESE,122,3.1,4.0,67,0.00,,---,0.00,VWS V14.00,2013-04-30 04:26:00,
2013-04-29 23:31:00,63.1,52.4,29.55,SE,137,2.7,4.0,68,0.00,,---,0.00,VWS V14.00,2013-04-30 04:31:00,
2013-04-29 23:36:00,63.3,52.6,29.55,SE,142,3.6,7.6,68,0.00,,---,0.00,VWS V14.00,2013-04-30 04:36:00,
2013-04-29 23:41:00,63.7,52.9,29.55,SE,128,2.2,5.8,68,0.00,,---,0.00,VWS V14.00,2013-04-30 04:41:00,
2013-04-29 23:46:00,63.7,52.5,29.55,SE,137,2.7,6.3,67,0.00,,---,0.00,VWS V14.00,2013-04-30 04:46:00,
2013-04-29 23:51:00,63.9,52.7,29.55,SE,132,3.6,6.3,67,0.00,,---,0.00,VWS V14.00,2013-04-30 04:51:00,
2013-04-29 23:56:00,63.9,52.7,29.55,SE,137,0.0,4.0,67,0.00,,---,0.00,VWS V14.00,2013-04-30 04:56:00,